Regional Weather Roundup
Issued by NWS Wilmington, NC

Home | Current Version | Previous Version | Text Only | Print | Product List | Glossary On
Versions: 1 2 3 4 5 6 7 8 9 10 11 12 13 14 15 16 17 18 19 20 21 22 23 24 25 26 27 28 29 30 31 32 33 34 35 36 37 38 39 40 41 42 43 44 45 46 47 48 49 50
000
ASUS42 KILM 280510
RWRILM
RWRILM
REGIONAL HOURLY WEATHER ROUNDUP
NATIONAL WEATHER SERVICE WILMINGTON NC
1200 AM EST FRI NOV 28 2014

NOTE: "FAIR" INDICATES FEW OR NO CLOUDS BELOW 12,000 FEET WITH NO
SIGNIFICANT WEATHER AND/OR OBSTRUCTIONS TO VISIBILITY.

...............WFO WILMINGTON COUNTY WARNING AREA...............

......COASTAL NC AND SC COUNTIES......

CITY           SKY/WX    TMP DP  RH WIND       PRES   REMARKS
WILMINGTON     CLEAR     38  32  79 NW7       30.24R WCI  33
SOUTHPORT      CLEAR     38  35  88 N3        30.25S
N MYRTLE BEACH CLEAR     39  31  72 NW5       30.26R
MYRTLE BEACH   CLEAR     41  32  70 NW7       30.27S

......INLAND NC AND SC COUNTIES.......

CITY           SKY/WX    TMP DP  RH WIND       PRES   REMARKS
LUMBERTON      CLEAR     33  29  85 W5        30.27R WCI  29
ELIZABETHTOWN  CLEAR     38  30  72 CALM      30.25S
WHITEVILLE     CLEAR     37  32  79 CALM      30.26R
FLORENCE       CLEAR     37  30  75 NW6       30.29R WCI  32
DARLINGTON     CLEAR     34  27  75 NW3       30.30R

....................REST OF NORTH CAROLINA......................

.........EASTERN NC.........

CITY           SKY/WX    TMP DP  RH WIND       PRES   REMARKS
CAPE HATTERAS  CLEAR     43  33  68 N8G21     30.16R
JACKSONVILLE   CLEAR     37  28  70 NW3       30.23S
MOREHEAD CITY  CLEAR     42  34  73 N18       30.20S
KENANSVILLE    CLEAR     37  31  82 N5        30.25S WCI  33
NEW BERN       CLEAR     41  30  65 N10       30.22S
ELIZABETH CITY CLOUDY    43  37  79 NW7       30.19R

.........CENTRAL NC.........

CITY           SKY/WX    TMP DP  RH WIND       PRES   REMARKS
RALEIGH DURHAM PTCLDY    36  24  62 VRB3      30.26R
ROCKY MOUNT    CLEAR     35  25  66 W5        30.24S WCI  31
ROANOKE RAPIDS NOT AVBL
FAYETTEVILLE   CLEAR     37  27  67 NW7       30.26R WCI  32
HOFFMAN        CLEAR     32  28  86 W5        30.29R WCI  27

.........WESTERN NC.........

CITY           SKY/WX    TMP DP  RH WIND       PRES   REMARKS
CHARLOTTE      CLEAR     34  22  61 NW8       30.30R WCI  27
GREENSBORO     CLEAR     33  20  58 NW9       30.27R WCI  25
HICKORY        NOT AVBL
BOONE          NOT AVBL
ASHEVILLE      NOT AVBL

.....................REST OF SOUTH CAROLINA.....................

.........EASTERN SC.........

CITY           SKY/WX    TMP DP  RH WIND       PRES   REMARKS
CHARLESTON     CLEAR     41  31  67 NW8       30.30R
BEAUFORT MCAS  CLEAR     42  31  64 NW9       30.31S
HILTON HEAD    CLEAR     43  32  65 NW7       30.32R

.........CENTRAL SC.........

CITY           SKY/WX    TMP DP  RH WIND       PRES   REMARKS
COLUMBIA       CLEAR     41  27  57 NW7       30.31S
ORANGEBURG     CLEAR     39  28  64 CALM      30.31R
SUMTER SHAW    CLEAR     37  28  71 W7        30.29R WCI  31

.........WESTERN SC.........

CITY           SKY/WX    TMP DP  RH WIND       PRES   REMARKS
GREENVILLE     NOT AVBL
ROCK HILL      CLEAR     34  23  64 NW7       30.30S WCI  28
ANDERSON       CLEAR     35  24  64 NW5       30.31S WCI  31
CLEMSON        NOT AVBL
GREENWOOD      CLEAR     30  25  81 W3        30.33R


...................COASTAL AND OFFSHORE REPORTS..................

................LOCAL PIERS AND NC RESERVE................


STATION/POSITION TIME  SKY/WX   TEMP    WIND        PRES    VSBY
                                AIR SEA DIR/SP/G
                 (UTC)          (F)     (DEG/KT/KT) (MB)    (MI)
JOHNY MRCER PIER 0500            42 60  340/  8/ 14 1023.0F
NC RESRV MASNBRO 0400            41     260/  1     1023.0S
OCEAN CREST PIER 0500            40 57  320/  6/ 10 1023.3R
SPRINGMAID  PIER 0500            40 56  320/  4/  5 1025.0R


................COASTAL AND OFFSHORE BUOYS................


STATION/POSITION TIME  SKY/WX   TEMP    WIND        PRES    VSBY
                                AIR SEA DIR/SP/G
                 (UTC)          (F)     (DEG/KT/KT) (MB)    (MI)
DIMNDSHOAL 41025 0500            48     320/ 21/ 25 1020.3R
WVE H/P(F/S)=  6/ 5 WND WVE H/P(F/S)=  7/ 5 SWL H/P/D(F/S/D)=  2/ 20/14

CAPE LOOKOUT     0400            45     330/ 21/ 25 1022.0R
ONSLOW BAY 41036 0500            49 66  340/ 25/ 31 1022.6R
WVE H/P(F/S)=  6/ 5 WND WVE H/P(F/S)=  5/ 5 SWL H/P/D(F/S/D)=  2/190/ 8

5 WRITEBCH 41038 0400            43 59  340/ 14/ 17 1023.3R
MASONBORO  41110 0500               59                N/A
WVE H/P(F/S)=  3/ 3 WND WVE H/P(F/S)=  2/ 3

WILM HARBR 41108 0500               61                N/A
WVE H/P(F/S)=  4/ 3 WND WVE H/P(F/S)=  3/ 3

27WRITEBCH 41037 0400            47 66  360/ 21/ 27 1023.4R
FRYING PAN 41013 0500            51 70  340/ 21/ 29 1023.1R
WVE H/P(F/S)=  6/ 5 WND WVE H/P(F/S)=  7/ 5 SWL H/P/D(F/S/D)=  2/140/10

SUNST NRSH 41024 0400            44     350/ 16/ 17 1020.9R
CAPRS NRSH 41029 0400            48     320/ 19/ 23   N/A
EDISTO     41004 0500            54 72  320/ 17/ 21 1023.5R
WVE H/P(F/S)=  5/ 5 WND WVE H/P(F/S)=  5/ 5 SWL H/P/D(F/S/D)=  2/ 9



..........OFFSHORE BUOYS BEYOND 100 NM OFFSHORE...........
.....IN A TRIANGLE---HAT TO BERMUDA TO BAHAMAS TO HAT.....


STATION/POSITION TIME  SKY/WX   TEMP    WIND        PRES    VSBY
                                AIR SEA DIR/SP/G
                 (UTC)          (F)     (DEG/KT/KT) (MB)    (MI)
150E HAT   41001 NOT AVBL
W BERMUDA  41048 0434            71 75  230/ 21/ 23 1011.9F
WVE H/P(F/S)=  8/ 9 WND WVE H/P(F/S)=  5/ 6 SWL H/P/D(F/S/D)=  7/280/ 9

ATLANTIC S 41049 0353            77 78  220/  6/ 10 1014.1
WVE H/P(F/S)=  6/10 WND WVE H/P(F/S)=  2/ 4 SWL H/P/D(F/S/D)=  7/ 90/10

E BAHAMAS  41046 0427            79 81   CALM  /  2 1014.9F
WVE H/P(F/S)=  6/ 9 WND WVE H/P(F/S)=  2/ 4 SWL H/P/D(F/S/D)=  5/ 90/ 9

NE BAHAMAS 41047 0420            73 78  340/ 19/ 23 1015.1F
WVE H/P(F/S)=  8/ 9 WND WVE H/P(F/S)=  5/ 6 SWL H/P/D(F/S/D)=  7/360/ 9

120E CANVRL41010 0500            64 77  330/ 17/ 25 1021.5F
WVE H/P(F/S)=  9/ 8 WND WVE H/P(F/S)=  8/ 8 SWL H/P/D(F/S/D)=  3/ 60/14


END


USA.gov is the U.S. government's official web portal to all federal, state and local government web resources and services.